Time,TemperatureF,DewpointF,PressureIn,WindDirection,WindDirectionDegrees,WindSpeedMPH,WindSpeedGustMPH,Humidity,HourlyPrecipIn,Conditions,Clouds,dailyrainin,SoftwareType,DateUTC
2011-11-26 00:03:00,41.2,15.4,30.07,NW,315,8.3,8.3,35,0.00,,,0.02,open2300-1.11,2011-11-26 07:03:00,
2011-11-26 00:18:00,41.0,15.3,30.08,WNW,292,7.4,8.3,35,0.00,,,0.02,open2300-1.11,2011-11-26 07:18:00,
2011-11-26 00:33:00,40.6,14.3,30.08,North,0,3.1,7.4,34,0.00,,,0.02,open2300-1.11,2011-11-26 07:33:00,
2011-11-26 00:48:00,40.3,14.6,30.10,NNE,22,3.8,6.0,35,0.00,,,0.02,open2300-1.11,2011-11-26 07:48:00,
2011-11-26 01:03:00,39.7,14.1,30.10,NW,315,0.7,8.1,35,0.00,,,0.00,open2300-1.11,2011-11-26 08:03:00,
2011-11-26 01:18:00,39.0,14.1,30.10,West,270,3.6,4.7,36,0.00,,,0.00,open2300-1.11,2011-11-26 08:18:00,
2011-11-26 01:33:00,38.8,14.6,30.11,NW,315,0.0,6.5,37,0.00,,,0.00,open2300-1.11,2011-11-26 08:33:00,
2011-11-26 01:48:00,37.9,13.8,30.12,South,180,0.0,0.0,37,0.00,,,0.00,open2300-1.11,2011-11-26 08:48:00,
2011-11-26 02:03:00,37.8,13.6,30.14,SW,225,0.0,3.8,37,0.00,,,0.00,open2300-1.11,2011-11-26 09:03:00,
2011-11-26 02:18:00,37.6,12.2,30.15,NE,45,2.2,2.2,35,0.00,,,0.00,open2300-1.11,2011-11-26 09:18:00,
2011-11-26 02:33:00,36.5,11.9,30.15,North,0,0.0,2.7,36,0.00,,,0.00,open2300-1.11,2011-11-26 09:33:00,
2011-11-26 02:48:00,35.4,11.5,30.15,NNW,337,0.0,0.0,37,0.00,,,0.00,open2300-1.11,2011-11-26 09:48:00,
2011-11-26 03:03:00,34.3,11.2,30.16,East,90,0.0,4.9,38,0.00,,,0.00,open2300-1.11,2011-11-26 10:03:00,
2011-11-26 03:18:00,33.4,11.1,30.16,SSE,157,0.0,0.0,39,0.00,,,0.00,open2300-1.11,2011-11-26 10:18:00,
2011-11-26 03:33:00,32.2,10.6,30.18,SSE,157,0.0,0.0,40,0.00,,,0.00,open2300-1.11,2011-11-26 10:33:00,
2011-11-26 03:48:00,31.8,10.2,30.19,SSW,202,0.0,0.0,40,0.00,,,0.00,open2300-1.11,2011-11-26 10:48:00,
2011-11-26 04:03:00,30.9,10.4,30.18,SW,225,0.0,0.0,42,0.00,,,0.00,open2300-1.11,2011-11-26 11:03:00,
2011-11-26 04:18:00,30.2,10.8,30.19,SW,225,0.0,0.0,44,0.00,,,0.00,open2300-1.11,2011-11-26 11:18:00,
2011-11-26 04:33:00,29.3,11.0,30.20,SW,225,0.0,0.0,46,0.00,,,0.00,open2300-1.11,2011-11-26 11:33:00,
2011-11-26 04:48:00,28.2,10.5,30.20,West,270,0.0,0.0,47,0.00,,,0.00,open2300-1.11,2011-11-26 11:48:00,
2011-11-26 05:03:00,28.0,10.8,30.21,West,270,0.0,0.0,48,0.00,,,0.00,open2300-1.11,2011-11-26 12:03:00,
2011-11-26 05:18:00,27.3,10.1,30.22,West,270,0.0,0.0,48,0.00,,,0.00,open2300-1.11,2011-11-26 12:18:00,
2011-11-26 05:33:00,27.1,10.4,30.22,NE,45,0.0,2.9,49,0.00,,,0.00,open2300-1.11,2011-11-26 12:33:00,
2011-11-26 05:48:00,26.6,9.9,30.21,NE,45,0.0,0.0,49,0.00,,,0.00,open2300-1.11,2011-11-26 12:48:00,
2011-11-26 06:03:00,26.4,9.3,30.22,West,270,0.0,0.0,48,0.00,,,0.00,open2300-1.11,2011-11-26 13:03:00,
2011-11-26 06:18:00,27.5,9.3,30.23,SW,225,1.1,2.2,46,0.00,,,0.00,open2300-1.11,2011-11-26 13:18:00,
2011-11-26 06:33:00,29.1,9.3,30.24,NNE,22,0.0,7.6,43,0.00,,,0.00,open2300-1.11,2011-11-26 13:33:00,
2011-11-26 06:48:00,29.8,9.0,30.24,ESE,112,0.0,0.0,41,0.00,,,0.00,open2300-1.11,2011-11-26 13:48:00,
2011-11-26 07:03:00,29.8,7.8,30.25,NW,315,0.0,0.0,39,0.00,,,0.00,open2300-1.11,2011-11-26 14:03:00,
2011-11-26 07:18:00,30.4,7.7,30.25,SW,225,3.1,3.1,38,0.00,,,0.00,open2300-1.11,2011-11-26 14:18:00,
2011-11-26 07:33:00,30.4,6.4,30.25,South,180,0.0,3.1,36,0.00,,,0.00,open2300-1.11,2011-11-26 14:33:00,
2011-11-26 07:48:00,31.6,6.9,30.25,SSE,157,3.4,10.7,35,0.00,,,0.00,open2300-1.11,2011-11-26 14:48:00,
2011-11-26 08:04:00,33.4,6.7,30.26,WSW,247,0.0,8.1,32,0.00,,,0.00,open2300-1.11,2011-11-26 15:04:00,
2011-11-26 08:18:00,34.7,7.1,30.27,South,180,0.0,3.8,31,0.00,,,0.00,open2300-1.11,2011-11-26 15:18:00,
2011-11-26 08:33:00,36.1,6.8,30.27,WNW,292,0.0,12.5,29,0.00,,,0.00,open2300-1.11,2011-11-26 15:33:00,
2011-11-26 09:03:00,39.7,8.2,30.28,WNW,292,2.7,6.5,27,0.00,,,0.00,open2300-1.11,2011-11-26 16:03:00,
2011-11-26 09:18:00,41.2,6.8,30.28,SSW,202,3.4,6.5,24,0.00,,,0.00,open2300-1.11,2011-11-26 16:18:00,
2011-11-26 09:33:00,42.6,7.0,30.28,SW,225,4.9,6.9,23,0.00,,,0.00,open2300-1.11,2011-11-26 16:33:00,
2011-11-26 09:48:00,43.9,7.2,30.29,SW,225,4.0,8.9,22,0.00,,,0.00,open2300-1.11,2011-11-26 16:48:00,
2011-11-26 10:03:00,44.8,8.0,30.30,NE,45,0.0,10.7,22,0.00,,,0.00,open2300-1.11,2011-11-26 17:03:00,
2011-11-26 10:18:00,46.4,8.4,30.30,SW,225,2.5,11.4,21,0.00,,,0.00,open2300-1.11,2011-11-26 17:18:00,
2011-11-26 10:33:00,48.0,8.8,30.30,NW,315,0.0,10.7,20,0.00,,,0.00,open2300-1.11,2011-11-26 17:33:00,
2011-11-26 10:48:00,49.3,9.9,30.30,WNW,292,4.7,9.4,20,0.00,,,0.00,open2300-1.11,2011-11-26 17:48:00,
2011-11-26 11:33:00,52.3,9.4,30.28,WNW,292,5.6,5.6,18,0.00,,,0.00,open2300-1.11,2011-11-26 18:33:00,
2011-11-26 12:03:00,54.1,9.4,30.26,WNW,292,4.7,5.8,17,0.00,,,0.00,open2300-1.11,2011-11-26 19:03:00,
2011-11-26 13:03:00,56.5,8.2,30.27,WNW,292,11.2,11.2,15,0.00,,,0.00,open2300-1.11,2011-11-26 20:03:00,
2011-11-26 13:19:00,55.9,7.8,30.27,NW,315,9.8,11.2,15,0.00,,,0.00,open2300-1.11,2011-11-26 20:19:00,
2011-11-26 14:48:00,57.6,7.5,30.25,West,270,0.0,9.8,14,0.00,,,0.00,open2300-1.11,2011-11-26 21:48:00,
2011-11-26 15:18:00,58.6,8.4,30.26,West,270,0.0,7.8,14,0.00,,,0.00,open2300-1.11,2011-11-26 22:18:00,
2011-11-26 15:33:00,58.8,8.5,30.27,NNW,337,3.1,8.3,14,0.00,,,0.00,open2300-1.11,2011-11-26 22:33:00,
2011-11-26 15:48:00,57.0,7.1,30.27,WSW,247,4.2,7.2,14,0.00,,,0.00,open2300-1.11,2011-11-26 22:48:00,
2011-11-26 16:03:00,57.7,6.1,30.27,West,270,4.2,6.0,13,0.00,,,0.00,open2300-1.11,2011-11-26 23:03:00,
2011-11-26 16:18:00,55.9,6.3,30.28,NNW,337,7.2,7.2,14,0.00,,,0.00,open2300-1.11,2011-11-26 23:18:00,
2011-11-26 16:33:00,54.0,4.7,30.27,NW,315,0.0,7.4,14,0.00,,,0.00,open2300-1.11,2011-11-26 23:33:00,
2011-11-26 16:48:00,52.0,4.6,30.28,WNW,292,0.0,2.9,15,0.00,,,0.00,open2300-1.11,2011-11-26 23:48:00,
2011-11-26 17:03:00,49.1,2.3,30.27,West,270,0.0,0.0,15,0.00,,,0.00,open2300-1.11,2011-11-27 00:03:00,
2011-11-26 17:18:00,45.7,1.0,30.28,WNW,292,0.0,4.9,16,0.00,,,0.00,open2300-1.11,2011-11-27 00:18:00,
2011-11-26 17:33:00,43.7,0.9,30.28,SW,225,0.0,10.5,17,0.00,,,0.00,open2300-1.11,2011-11-27 00:33:00,
2011-11-26 17:48:00,42.1,1.0,30.28,WNW,292,0.0,4.7,18,0.00,,,0.00,open2300-1.11,2011-11-27 00:48:00,
2011-11-26 18:03:00,40.8,1.4,30.28,West,270,0.0,1.6,19,0.00,,,0.00,open2300-1.11,2011-11-27 01:03:00,
2011-11-26 18:18:00,39.7,1.9,30.28,WNW,292,0.0,3.4,20,0.00,,,0.00,open2300-1.11,2011-11-27 01:18:00,
2011-11-26 18:33:00,39.2,0.0,30.29,WSW,247,0.0,0.0,19,0.00,,,0.00,open2300-1.11,2011-11-27 01:33:00,
2011-11-26 18:48:00,38.3,1.6,30.29,WNW,292,0.0,0.0,21,0.00,,,0.00,open2300-1.11,2011-11-27 01:48:00,
2011-11-26 19:03:00,37.2,1.6,30.29,NW,315,0.0,0.0,22,0.00,,,0.00,open2300-1.11,2011-11-27 02:03:00,
2011-11-26 19:18:00,36.3,1.7,30.29,NW,315,0.0,0.0,23,0.00,,,0.00,open2300-1.11,2011-11-27 02:18:00,
2011-11-26 19:33:00,35.4,1.8,30.30,NNW,337,0.0,0.0,24,0.00,,,0.00,open2300-1.11,2011-11-27 02:33:00,
2011-11-26 19:48:00,34.9,1.4,30.30,WNW,292,0.0,0.0,24,0.00,,,0.00,open2300-1.11,2011-11-27 02:48:00,
2011-11-26 20:03:00,34.3,1.8,30.30,NNW,337,4.5,4.5,25,0.00,,,0.00,open2300-1.11,2011-11-27 03:03:00,
2011-11-26 20:18:00,34.0,1.5,30.30,NNW,337,0.0,4.5,25,0.00,,,0.00,open2300-1.11,2011-11-27 03:18:00,
2011-11-26 20:33:00,33.8,2.2,30.31,NNW,337,0.0,2.9,26,0.00,,,0.00,open2300-1.11,2011-11-27 03:33:00,
2011-11-26 20:48:00,34.2,1.6,30.31,NW,315,5.1,5.6,25,0.00,,,0.00,open2300-1.11,2011-11-27 03:48:00,
2011-11-26 21:03:00,33.6,2.0,30.32,North,0,3.1,5.1,26,0.00,,,0.00,open2300-1.11,2011-11-27 04:03:00,
2011-11-26 21:18:00,33.1,1.6,30.32,NNW,337,0.0,3.1,26,0.00,,,0.00,open2300-1.11,2011-11-27 04:18:00,
2011-11-26 21:33:00,32.7,2.1,30.32,NNW,337,0.0,0.0,27,0.00,,,0.00,open2300-1.11,2011-11-27 04:33:00,
2011-11-26 21:48:00,32.2,2.5,30.31,North,0,0.0,1.3,28,0.00,,,0.00,open2300-1.11,2011-11-27 04:48:00,
2011-11-26 22:03:00,31.8,3.1,30.31,North,0,0.0,0.0,29,0.00,,,0.00,open2300-1.11,2011-11-27 05:03:00,
2011-11-26 22:18:00,30.4,1.8,30.32,North,0,0.0,0.0,29,0.00,,,0.00,open2300-1.11,2011-11-27 05:18:00,
2011-11-26 22:36:00,28.9,3.2,30.32,North,0,0.0,0.0,33,0.00,,,0.00,open2300-1.11,2011-11-27 05:36:00,
2011-11-26 22:48:00,28.0,2.4,30.32,North,0,0.0,0.0,33,0.00,,,0.00,open2300-1.11,2011-11-27 05:48:00,
2011-11-26 23:03:00,26.2,2.1,30.32,North,0,0.0,0.0,35,0.00,,,0.00,open2300-1.11,2011-11-27 06:03:00,
2011-11-26 23:18:00,25.5,2.7,30.33,North,0,0.0,0.0,37,0.00,,,0.00,open2300-1.11,2011-11-27 06:18:00,
2011-11-26 23:33:00,24.4,2.4,30.33,North,0,0.0,0.0,38,0.00,,,0.00,open2300-1.11,2011-11-27 06:33:00,
2011-11-26 23:48:00,24.4,3.6,30.32,North,0,0.0,0.0,40,0.00,,,0.00,open2300-1.11,2011-11-27 06:48:00,